User: anonymous   Login
Location: Nitra
(0.0000°N, 18.0833°E)
Time: 02:13:55
(UTC+02:00)
Language:

DELTA 2 R/B (1) - Orbit

View from above orbital plane
View from above orbital plane
View from above satellite
View from above satellite

Ground track
Ground track

The orbit data is extracted from the following two-line orbital elements,

1 27665U 03005C   21103.77088921 -.00000024  00000-0  24037-4 0  9990
2 27665  39.5750 198.5171 0009628 343.1611 166.9587 14.28549810950685
Epoch (UTC): 13 April 2021 18:30:04
Eccentricity: 0.0009628
inclination: 39.5750°
perigee height: 789 km
apogee height: 803 km
right ascension of ascending node: 198.5171°
argument of perigee: 343.1611°
revolutions per day: 14.28549810
mean anomaly at epoch: 166.9587°
orbit number at epoch: 95068

The dashed part of the orbit path shows where the satellite is in the earth's shadow,  

DLR